Regional Weather Roundup
Issued by NWS

Home | Current Version | Previous Version | Text Only | Print | Product List | Glossary Off
Versions: 1 2 3 4 5 6 7 8 9 10 11 12 13 14 15 16 17 18 19 20 21 22 23 24 25 26 27 28 29 30 31 32 33 34 35 36 37 38 39 40 41 42 43 44 45 46 47 48 49 50

076
ASUS45 KPSR 230810
RWRAZ

ARIZONA HOURLY REGIONAL WEATHER ROUNDUP
NATIONAL WEATHER SERVICE PHOENIX AZ
100 AM MST TUE JAN 23 2018

NOTE: FAIR INDICATES FEW OR NO CLOUDS BELOW 12,000 FEET WITH NO
SIGNIFICANT WEATHER AND/OR OBSTRUCTIONS TO VISIBILITY.

AZZ001>003-036-230900-
NORTHWEST ARIZONA

CITY           SKY/WX    TMP DP  RH WIND       PRES   REMARKS
BULLHEAD CITY  PTCLDY    52  21  30 NE15      30.21S
KINGMAN        CLEAR    N/A N/A N/A E9        30.22F
$$

AZZ004>008-015-016-018-230900-
NORTH CENTRAL ARIZONA

CITY           SKY/WX    TMP DP  RH WIND       PRES   REMARKS
GRAND CANYON   CLEAR     13   8  81 CALM      30.24F
WILLIAMS       CLEAR     18   7  62 S5        30.19S WCI  11
PRESCOTT       CLEAR     25  15  66 S5        30.20S WCI  19
FLAGSTAFF      PTCLDY     8   2  76 CALM      30.21F
PAYSON         CLEAR     28   7  40 CALM      30.17S
PAGE           CLEAR     29  13  51 SE5       30.28F WCI  24
$$

AZZ009>014-017-230900-
NORTHEAST ARIZONA

CITY           SKY/WX    TMP DP  RH WIND       PRES   REMARKS
WINSLOW        PTCLDY    12   1  61 S6        30.27S WCI   3
SAINT JOHNS    CLEAR     16   9  74 S5        30.22F WCI   9
WINDOW ROCK    CLEAR      7   4  87 CALM      30.24F
SHOW LOW       DRIZZLE   14  10  85 CALM      30.22F
$$

AZZ540-542>544-546-548-230900-
GREATER PHOENIX AREA

CITY           SKY/WX    TMP DP  RH WIND       PRES   REMARKS
PHOENIX        PTCLDY    47  24  40 E3        30.12F
BUCKEYE        CLEAR     43  16  33 N8        30.14F
LUKE AFB       CLEAR     41  21  44 N8        30.12F
DEER VALLEY    CLEAR     45  22  40 NE10      30.12F
SCOTTSDALE     CLEAR     45  24  43 CALM      30.14F
MESA-GATEWAY   CLEAR     36  18  47 E8        30.13F WCI  30
$$

AZZ539-553-230900-
SOUTHWEST MARICOPA COUNTY AND PINAL COUNTY

CITY           SKY/WX    TMP DP  RH WIND       PRES   REMARKS
CASA GRANDE    NOT AVBL
GILA BEND      FAIR      38  15  39 SE6       30.13F WCI  34
$$

AZZ503-504-507>509-230900-
SOUTHEAST ARIZONA

CITY           SKY/WX    TMP DP  RH WIND       PRES   REMARKS
TUCSON         CLEAR     36  14  40 SE6       30.13F WCI  31
DAVIS-MONTHAN  CLEAR     31  15  50 S3        30.11F
NOGALES        CLEAR     30   7  37 E3        30.10F
SIERRA VISTA   CLEAR     33   8  34 W3        30.14F
DOUGLAS        CLEAR     27   8  44 N8        30.13F WCI  19
SAFFORD        CLEAR     26  10  50 SE3       30.16F
$$

AZZ532-230900-
SOUTHWEST ARIZONA

CITY           SKY/WX    TMP DP  RH WIND       PRES   REMARKS
YUMA           CLEAR     47  23  38 CALM      30.15F
$$

CAZ041-043-047-048-061-525>527-560>570-230900-
SOUTHERN CALIFORNIA

CITY           SKY/WX    TMP DP  RH WIND       PRES   REMARKS
DOWNTOWN L.A.  CLEAR     50  37  61 CALM      30.16S
L.A. AIRPORT   CLEAR     53  37  54 E5        30.17S
SAN DIEGO      CLEAR     52  35  52 CALM      30.16F
BURBANK        CLEAR     48  30  49 CALM      30.16S
ONTARIO        CLEAR     49  27  42 N5        30.17S
RIVERSIDE      CLEAR     49  28  44 NE7       30.18S
PALM SPRINGS   CLEAR     54  21  27 NW8       30.20F
EL CENTRO NAS  CLEAR     44  10  25 W7        30.18F
IMPERIAL       CLEAR     42  19  39 W3        30.17S
BLYTHE         CLEAR     47  15  27 NW3       30.18F
NEEDLES        PTCLDY    52  21  29 N7        30.20F
$$

NVZ020-UTZ003-230900-
SOUTHERN NEVADA-UTAH

CITY           SKY/WX    TMP DP  RH WIND       PRES   REMARKS
LAS VEGAS      PTCLDY    43  27  53 SW5       30.25F
SALT LAKE CITY PTCLDY    29  24  82 S5        30.33F WCI  24
$$

NMZ009-TXZ055-230900-
NEW MEXICO-WEST TEXAS

CITY           SKY/WX    TMP DP  RH WIND       PRES   REMARKS
ALBUQUERQUE    CLEAR     21   8  57 E3        30.23S
EL PASO        PTCLDY    36   7  29 N5        30.19S WCI  32
$$


........................KEY........................
SKY/WX - SKY CONDITION/WEATHER
TMP    - TEMPERATURE IN FAHRENHEIT
DP     - DEW POINT IN FAHRENHEIT
RH     - RELATIVE HUMIDITY IN PERCENT
WIND   - DIRECTION AND SPEED IN MILES PER HOUR (MPH)
VRB    - VARIABLE WIND DIRECTION
PRES   - MEAN SEA LEVEL PRESSURE IN INCHES OF MERCURY
         F - FALLING PRESSURE   R - RISING PRESSURE
         S - STEADY PRESSURE
VSB    - VISIBILITY IN MILES
HX     - HEAT INDEX IN FAHRENHEIT
WCI    - WIND CHILL INDEX IN FAHRENHEIT
TC     - TEMPERATURE IN CELSIUS WHICH IS ALSO KNOWN AS
         TEMPERATURE IN CENTIGRADE
AFB    - AIR FORCE BASE
         LUKE AFB IS LUKE AIR FORCE BASE
         DAVIS-MONTHAN IS DAVIS-MONTHAN AIR FORCE BASE
NAS    - NAVAL AIR STATION
         EL CENTRO NAS IS EL CENTRO NAVAL AIR STATION
N/A    - NOT AVAILABLE





USA.gov is the U.S. government's official web portal to all federal, state and local government web resources and services.